| time (UTC) | temp F | wind direction | speed knots | gust knots | rain 1hr in | rain 24hr in | rain mn in | humidity % | barometer mb |
| 20260503210005 | 61 | 211 | 4.3 | 8.7 | 0.00 | 0.00 | 0.00 | 39 | 1010.0 |
| 20260503204506 | 63 | 243 | 4.3 | 13.9 | 0.00 | 0.00 | 0.00 | 39 | 1010.1 |
| 20260503203003 | 62 | 276 | 2.6 | 9.6 | 0.00 | 0.00 | 0.00 | 41 | 1010.5 |
| 20260503201506 | 62 | 229 | 2.6 | 8.7 | 0.00 | 0.00 | 0.00 | 41 | 1010.4 |
| 20260503200004 | 62 | 272 | 2.6 | 14.8 | 0.00 | 0.00 | 0.00 | 40 | 1010.6 |
| 20260503194503 | 62 | 234 | 1.7 | 8.7 | 0.00 | 0.00 | 0.00 | 41 | 1010.9 |
| 20260503193005 | 62 | 221 | 2.6 | 13.0 | 0.00 | 0.00 | 0.00 | 39 | 1011.0 |
| 20260503191511 | 62 | 252 | 3.5 | 11.3 | 0.00 | 0.00 | 0.00 | 39 | 1011.2 |
| 20260503190007 | 63 | 211 | 5.2 | 17.4 | 0.00 | 0.00 | 0.00 | 39 | 1011.3 |
| 20260503184504 | 63 | 252 | 4.3 | 15.6 | 0.00 | 0.00 | 0.00 | 40 | 1011.6 |
| 20260503183006 | 63 | 302 | 1.7 | 7.8 | 0.00 | 0.00 | 0.00 | 40 | 1011.8 |
| 20260503181504 | 62 | 194 | 2.6 | 7.8 | 0.00 | 0.00 | 0.00 | 39 | 1012.0 |
| 20260503180005 | 60 | 191 | 1.7 | 7.8 | 0.00 | 0.00 | 0.00 | 44 | 1012.3 |
| 20260503174503 | 59 | 258 | 3.5 | 9.6 | 0.00 | 0.00 | 0.00 | 43 | 1012.6 |
| 20260503173003 | 58 | 202 | 0.9 | 6.1 | 0.00 | 0.00 | 0.00 | 46 | 1012.8 |
| 20260503171503 | 58 | 234 | 1.7 | 9.6 | 0.00 | 0.00 | 0.00 | 45 | 1013.1 |
| 20260503081517 | 33 | 223 | 0.0 | 0.0 | 0.00 | 0.01 | 0.00 | 83 | 1015.8 |
| 20260503071505 | 33 | 211 | 0.0 | 0.0 | 0.00 | 0.01 | 0.00 | 87 | 1015.9 |
| 20260503054509 | 33 | 211 | 0.0 | 0.0 | 0.00 | 0.01 | 0.00 | 87 | 1016.6 |
| 20260503053003 | 34 | 211 | 0.0 | 0.0 | 0.00 | 0.01 | 0.00 | 87 | 1016.6 |
| 20260503051505 | 34 | 211 | 0.0 | 0.0 | 0.00 | 0.01 | 0.00 | 86 | 1016.7 |
| 20260503050006 | 34 | 211 | 0.0 | 0.0 | 0.00 | 0.01 | 0.00 | 86 | 1016.7 |
| 20260503044504 | 34 | 211 | 0.0 | 0.0 | 0.00 | 0.02 | 0.00 | 85 | 1016.7 |
| 20260503043004 | 34 | 211 | 0.0 | 0.0 | 0.00 | 0.02 | 0.00 | 85 | 1016.6 |
| 20260503041504 | 34 | 211 | 0.0 | 0.0 | 0.00 | 0.02 | 0.00 | 84 | 1016.7 |
| 20260503040007 | 35 | 211 | 0.0 | 0.0 | 0.00 | 0.02 | 0.00 | 84 | 1016.8 |
| 20260503034503 | 35 | 211 | 0.0 | 0.0 | 0.00 | 0.02 | 0.02 | 82 | 1016.8 |
| 20260503033007 | 35 | 211 | 0.0 | 0.0 | 0.00 | 0.02 | 0.02 | 83 | 1016.9 |
| 20260503031503 | 36 | 211 | 0.0 | 0.0 | 0.00 | 0.02 | 0.02 | 82 | 1017.0 |
| 20260503030007 | 36 | 211 | 0.0 | 0.0 | 0.00 | 0.02 | 0.02 | 80 | 1017.0 |
| 20260503024502 | 37 | 211 | 0.0 | 0.0 | 0.00 | 0.02 | 0.02 | 79 | 1017.2 |
| 20260503023002 | 37 | 211 | 0.0 | 0.0 | 0.00 | 0.02 | 0.02 | 75 | 1017.2 |
| 20260503021502 | 37 | 211 | 0.0 | 0.0 | 0.00 | 0.02 | 0.02 | 75 | 1017.1 |
| 20260503020005 | 38 | 211 | 0.0 | 0.0 | 0.00 | 0.02 | 0.02 | 73 | 1016.8 |
| 20260503014502 | 39 | 211 | 0.0 | 0.0 | 0.00 | 0.02 | 0.02 | 74 | 1016.7 |
| 20260503013003 | 40 | 211 | 0.0 | 0.0 | 0.00 | 0.02 | 0.02 | 71 | 1016.8 |
| 20260503011506 | 41 | 211 | 0.0 | 0.0 | 0.00 | 0.02 | 0.02 | 64 | 1016.8 |
| 20260503010004 | 42 | 211 | 0.0 | 0.0 | 0.00 | 0.02 | 0.02 | 60 | 1016.7 |
| 20260503004503 | 44 | 211 | 0.0 | 0.0 | 0.00 | 0.02 | 0.02 | 56 | 1016.5 |
| 20260503003003 | 46 | 211 | 0.0 | 0.0 | 0.00 | 0.02 | 0.02 | 51 | 1016.5 |
| 20260503001503 | 46 | 248 | 0.0 | 0.0 | 0.00 | 0.02 | 0.02 | 50 | 1016.6 |
| 20260503000007 | 47 | 256 | 0.0 | 1.7 | 0.00 | 0.02 | 0.02 | 46 | 1016.6 |
| 20260502234503 | 47 | 294 | 0.0 | 0.0 | 0.00 | 0.02 | 0.02 | 48 | 1016.5 |
| 20260502233003 | 47 | 194 | 0.0 | 0.0 | 0.00 | 0.02 | 0.02 | 48 | 1016.6 |
| 20260502231502 | 47 | 248 | 0.0 | 1.7 | 0.00 | 0.02 | 0.02 | 49 | 1016.6 |
| 20260502230005 | 47 | 303 | 0.0 | 2.6 | 0.00 | 0.02 | 0.02 | 45 | 1016.6 |
| 20260502224506 | 47 | 248 | 0.0 | 1.7 | 0.00 | 0.03 | 0.02 | 49 | 1016.6 |
| 20260502223006 | 47 | 235 | 0.0 | 0.0 | 0.00 | 0.03 | 0.02 | 47 | 1016.6 |
| 20260502221503 | 47 | 290 | 0.0 | 1.7 | 0.00 | 0.03 | 0.02 | 45 | 1016.8 |
| 20260502220005 | 48 | 219 | 0.0 | 1.7 | 0.00 | 0.03 | 0.02 | 46 | 1016.7 |
| 20260502214504 | 48 | 219 | 0.0 | 3.5 | 0.00 | 0.03 | 0.02 | 44 | 1016.6 |
| 20260502213008 | 48 | 250 | 0.0 | 3.5 | 0.00 | 0.03 | 0.02 | 48 | 1016.7 |
| 20260502211503 | 48 | 328 | 0.0 | 3.5 | 0.00 | 0.03 | 0.02 | 47 | 1016.8 |